Regional Weather Roundup
Issued by NWS

Home | Current Version | Previous Version | Graphics & Text | Print | Product List | Glossary On
Versions: 1 2 3 4 5 6 7 8 9 10 11 12 13 14 15 16 17 18 19 20 21 22 23 24 25 26 27 28 29 30 31 32 33 34 35 36 37 38 39 40 41 42 43 44 45 46 47 48 49 50
000
ASUS45 KCYS 012110
RWRWY

WYOMING REGIONAL WEATHER ROUNDUP
NATIONAL WEATHER SERVICE CHEYENNE WY
200 PM MST SUN MAR 01 2015

NOTE:  "FAIR" INDICATES FEW OR NO CLOUDS BELOW 12,000 FEET
WITH NO SIGNIFICANT WEATHER AND/OR OBSTRUCTIONS TO VISIBILITY.

WYZ001-012200-
YELLOWSTONE NATIONAL PARK

CITY           SKY/WX    TMP DP  RH WIND       PRES   REMARKS
LK YELLOWSTONE   N/A     15  -4  42 E3        30.07F
W YELLOWSTONE  NOT AVBL

$$
WYZ002>013-054>058-071-098>099-012200-
NORTHERN WYOMING

CITY           SKY/WX    TMP DP  RH WIND       PRES   REMARKS
JACKSON        SUNNY     21  10  63 CALM      30.10F
CODY           FAIR      25  12  58 SE12      30.16F WCI  14
GREYBULL       FAIR      30   0  27 VRB3      30.23F
WORLAND        FAIR      28   7  41 VRB3      30.22F
SHERIDAN       FAIR      24   9  52 SW7       30.24F WCI  16
BUFFALO        FAIR      22   9  57 CALM      30.19F
GILLETTE       FAIR      25   6  44 NW8G17    30.21F WCI  16
HULETT         FAIR      25  10  54 NW6       30.25S WCI  18
NEWCASTLE      FAIR      27   5  39 NW13G20   30.24F WCI  16

$$
WYZ014>020-022>026-101>103-012200-
CENTRAL WYOMING

CITY           SKY/WX    TMP DP  RH WIND       PRES   REMARKS
BIG PINEY      FAIR      29  13  51 E7        30.08F WCI  22
PINEDALE       FAIR      23  12  63 N5        30.09F WCI  17
DUBOIS         FAIR      23  10  58 S5        30.05F WCI  17
LANDER         CLOUDY    23  10  57 CALM      30.15F
RIVERTON       PTSUNNY   23   9  55 VRB6      30.17F WCI  16
CASPER         FAIR      30   8  39 W10       30.15F WCI  21
DOUGLAS        FAIR      28  11  48 N7        30.20F WCI  21

$$
WYZ021-027>030-104>119-012200-
SOUTHERN WYOMING

CITY           SKY/WX    TMP DP  RH WIND       PRES   REMARKS
EVANSTON       FAIR      27  18  69 E9        30.05F WCI  18
KEMMERER       FAIR      32  14  47 SE6       30.07F WCI  26
FORT BRIDGER   CLOUDY    25  20  79 SE7       30.11S WCI  18
ROCK SPRINGS   FAIR      29  14  53 S9        30.09F WCI  20
DIXON          FAIR      34  22  62 W7        30.12F WCI  27
RAWLINS        FAIR      29  13  51 CALM      30.09F
SARATOGA       MOCLDY    30  21  69 S3        30.10F
LARAMIE        FAIR      20  12  71 CALM      30.09F
CHEYENNE       PTSUNNY   25  12  58 VRB3      30.15S
TORRINGTON     FAIR      33   7  33 VRB5      30.23F WCI  29
PINE BLUFFS    CLOUDY    28  14  54 N6        30.21S WCI  22

$$



USA.gov is the U.S. government's official web portal to all federal, state and local government web resources and services.